Weather History for Statesboro, GA

Change the Weather History Date:

Thursday, November 7, 2013

  Actual Average (KSAV) Record (KSAV)
Temperature  
Mean Temperature 64 °F 62 °F  
Max Temperature 76 °F 73 °F 86 °F (1986)
Min Temperature 53 °F 50 °F 29 °F (1967)
Degree Days  
Heating Degree Days 1 5  
Month to date heating degree days 31  
Since 1 July heating degree days 88  
Cooling Degree Days 0 2  
Month to date cooling degree days 14  
Year to date cooling degree days 2426  
Growing Degree Days 14 (Base 50)    
Moisture  
Dew Point 56 °F    
Average Humidity 81    
Maximum Humidity 100    
Minimum Humidity 57    
Precipitation  
Precipitation 0.00 in 0.08 in 1.34 in (1895)
Month to date precipitation 0.54  
Year to date precipitation 43.18  
Sea Level Pressure  
Sea Level Pressure 30.05 in    
Wind  
Wind Speed 3 mph (WNW)    
Max Wind Speed 13 mph    
Max Gust Speed 18 mph    
Visibility 10 miles    
Events      
T = Trace of Precipitation, MM = Missing Value Source: NWS Daily Summary

Daily Weather History Graph

Daily Weather History Graph

Search for Another Location

Airport:

Trip Planner

Search our weather history database for the weather conditions in past years. The results will help you decide how hot, cold, wet, or windy it might be!

Date:

Astronomy

Nov. 07, 2013 Rise Set
Actual Time 6:49 AM EST 5:31 PM EST
Civil Twilight 6:23 AM EST 5:56 PM EST
Nautical Twilight 5:54 AM EST 6:26 PM EST
Astronomical Twilight 5:25 AM EST 6:55 PM EST
Moon 10:54 AM EST (11/7) 9:43 PM EST (11/7)
Length of Visible Light 11h 32m
Length of Day
10h 41m
Waxing Crescent, 22% of the Moon is Illuminated
Nov 7
Waxing Crescent
Nov 10
First Quarter
Nov 17
Full
Nov 25
Last Quarter
Dec 2
New

Hourly Weather History & Observations

Time (EST) Temp. Dew Point Humidity Pressure Visibility Wind Dir Wind Speed Gust Speed Precip Events Conditions
12:15 AM 55.4 °F 55.4 °F 100% 30.10 in 10.0 mi Calm Calm - N/A   Clear
12:35 AM 55.0 °F 55.0 °F 100% 30.10 in 7.0 mi Calm Calm - N/A   Clear
12:55 AM 55.4 °F 55.4 °F 100% 30.09 in 7.0 mi Calm Calm - N/A   Clear
1:15 AM 54.7 °F 54.7 °F 100% 30.09 in 10.0 mi Calm Calm - N/A   Clear
1:35 AM 54.7 °F 54.7 °F 100% 30.09 in 10.0 mi Calm Calm - N/A   Clear
1:55 AM 54.7 °F 54.7 °F 100% 30.08 in 10.0 mi Calm Calm - N/A   Clear
2:15 AM 54.9 °F 54.9 °F 100% 30.08 in 10.0 mi Calm Calm - N/A   Clear
2:35 AM 54.5 °F 54.5 °F 100% 30.08 in 10.0 mi Calm Calm - N/A   Clear
2:55 AM 54.7 °F 54.7 °F 100% 30.07 in 10.0 mi Calm Calm - N/A   Clear
3:15 AM 54.7 °F 54.7 °F 100% 30.06 in 10.0 mi Calm Calm - N/A   Clear
3:35 AM 54.5 °F 54.5 °F 100% 30.06 in 10.0 mi Calm Calm - N/A   Clear
3:55 AM 53.8 °F 53.8 °F 100% 30.06 in 0.8 mi Calm Calm - N/A   Mist
4:15 AM 54.0 °F 54.0 °F 100% 30.05 in 10.0 mi Calm Calm - N/A   Clear
4:35 AM 53.6 °F 53.6 °F 100% 30.04 in 10.0 mi Calm Calm - N/A   Clear
4:55 AM 54.1 °F 54.1 °F 100% 30.05 in 10.0 mi Calm Calm - N/A   Clear
5:15 AM 54.7 °F 54.7 °F 100% 30.04 in 10.0 mi Calm Calm - N/A   Clear
5:35 AM 54.5 °F 54.5 °F 100% 30.04 in 10.0 mi Calm Calm - N/A   Clear
5:55 AM 54.1 °F 54.1 °F 100% 30.05 in 10.0 mi Calm Calm - N/A   Clear
6:15 AM 53.2 °F 53.2 °F 100% 30.04 in 7.0 mi Calm Calm - N/A   Clear
6:35 AM 54.5 °F 54.5 °F 100% 30.05 in 10.0 mi Calm Calm - N/A   Clear
6:55 AM 54.5 °F 54.5 °F 100% 30.05 in 10.0 mi Calm Calm - N/A   Clear
7:15 AM 54.9 °F 54.9 °F 100% 30.06 in 10.0 mi Calm Calm - N/A   Clear
7:35 AM 55.6 °F 55.6 °F 100% 30.06 in 10.0 mi Calm Calm - N/A   Clear
7:55 AM 56.3 °F 56.3 °F 100% 30.07 in 10.0 mi Calm Calm - N/A   Clear
8:15 AM 57.6 °F 57.6 °F 100% 30.07 in 10.0 mi Calm Calm - N/A   Clear
8:35 AM 59.5 °F 59.5 °F 100% 30.07 in 10.0 mi Calm Calm - N/A   Clear
8:55 AM 61.0 °F 61.0 °F 100% 30.08 in 10.0 mi Calm Calm - N/A   Clear
9:15 AM 61.9 °F 61.9 °F 100% 30.07 in 10.0 mi Calm Calm - N/A   Clear
9:35 AM 64.6 °F 63.5 °F 96% 30.08 in 10.0 mi West 3.5 mph - N/A   Clear
9:55 AM 67.6 °F 63.5 °F 87% 30.07 in 10.0 mi WSW 5.8 mph - N/A   Clear
10:15 AM 69.4 °F 63.0 °F 80% 30.07 in 10.0 mi West 4.6 mph - N/A   Clear
10:35 AM 70.7 °F 62.6 °F 75% 30.07 in 10.0 mi West 5.8 mph - N/A   Clear
10:55 AM 71.1 °F 62.6 °F 75% 30.06 in 10.0 mi WSW 6.9 mph - N/A   Clear
11:15 AM 72.9 °F 60.8 °F 66% 30.05 in 10.0 mi West 6.9 mph - N/A   Scattered Clouds
11:35 AM 73.9 °F 59.7 °F 61% 30.04 in 10.0 mi West 5.8 mph - N/A   Scattered Clouds
11:55 AM 75.7 °F 59.9 °F 58% 30.03 in 10.0 mi WNW 6.9 mph - N/A   Mostly Cloudy
12:15 PM 75.0 °F 59.0 °F 57% 30.03 in 10.0 mi West 9.2 mph - N/A   Mostly Cloudy
12:35 PM 74.8 °F 59.5 °F 59% 30.02 in 10.0 mi WNW 8.1 mph - N/A   Overcast
12:55 PM 73.4 °F 59.5 °F 62% 30.02 in 10.0 mi WNW 12.7 mph 17.3 mph N/A   Overcast
1:15 PM 74.5 °F 59.7 °F 60% 30.01 in 10.0 mi WNW 10.4 mph - N/A   Overcast
1:35 PM 73.2 °F 59.4 °F 62% 30.01 in 10.0 mi WNW 12.7 mph 18.4 mph N/A   Overcast
1:55 PM 73.0 °F 59.7 °F 63% 30.00 in 10.0 mi WNW 8.1 mph - N/A   Overcast
2:15 PM 73.2 °F 59.7 °F 63% 30.00 in 10.0 mi WNW 8.1 mph - N/A   Overcast
2:35 PM 73.9 °F 59.9 °F 61% 29.99 in 10.0 mi West 9.2 mph - N/A   Mostly Cloudy
2:55 PM 72.5 °F 59.7 °F 64% 30.00 in 10.0 mi WNW 9.2 mph - N/A   Overcast
3:15 PM 73.6 °F 59.2 °F 61% 29.99 in 10.0 mi West 10.4 mph 16.1 mph N/A   Overcast
3:35 PM 72.3 °F 59.2 °F 63% 29.99 in 10.0 mi West 6.9 mph - N/A   Overcast
3:55 PM 72.5 °F 59.0 °F 62% 29.99 in 10.0 mi WNW 8.1 mph - N/A   Overcast
4:15 PM 72.1 °F 58.3 °F 62% 29.99 in 10.0 mi WNW 6.9 mph - N/A   Overcast
4:35 PM 72.5 °F 57.7 °F 60% 29.99 in 10.0 mi NW 6.9 mph - N/A   Mostly Cloudy
4:55 PM 71.6 °F 57.4 °F 61% 30.00 in 10.0 mi WNW 6.9 mph - N/A   Clear
5:35 PM 68.0 °F 57.2 °F 68% 30.00 in 10.0 mi West 3.5 mph - N/A   Clear
5:55 PM 66.7 °F 57.0 °F 71% 30.01 in 10.0 mi West 4.6 mph - N/A   Clear
6:15 PM 64.9 °F 56.5 °F 74% 30.02 in 10.0 mi West 3.5 mph - N/A   Clear
6:35 PM 64.8 °F 56.8 °F 75% 30.03 in 10.0 mi West 3.5 mph - N/A   Clear
6:55 PM 61.5 °F 60.1 °F 95% 30.03 in 10.0 mi West 3.5 mph - N/A   Clear
7:15 PM 60.6 °F 59.5 °F 96% 30.03 in 10.0 mi West 3.5 mph - N/A   Clear
7:35 PM 59.7 °F 59.5 °F 99% 30.04 in 10.0 mi WNW 5.8 mph - N/A   Clear
7:55 PM 62.8 °F 59.9 °F 90% 30.05 in 10.0 mi WNW 6.9 mph - N/A   Clear
8:15 PM 61.7 °F 56.8 °F 84% 30.05 in 10.0 mi NW 8.1 mph - N/A   Clear
8:35 PM 61.7 °F 50.0 °F 65% 30.06 in 10.0 mi NW 9.2 mph - N/A   Clear
8:55 PM 61.0 °F 48.4 °F 63% 30.07 in 10.0 mi NW 10.4 mph 16.1 mph N/A   Clear
9:15 PM 61.0 °F 46.8 °F 59% 30.07 in 10.0 mi NW 10.4 mph - N/A   Clear
9:35 PM 60.4 °F 46.0 °F 59% 30.07 in 10.0 mi NNW 9.2 mph 16.1 mph N/A   Clear
9:55 PM 59.4 °F 45.7 °F 61% 30.07 in 10.0 mi NW 11.5 mph 16.1 mph N/A   Clear
10:15 PM 58.6 °F 44.8 °F 60% 30.08 in 10.0 mi NNW 8.1 mph 17.3 mph N/A   Clear
10:35 PM 57.9 °F 43.7 °F 59% 30.08 in 10.0 mi NNW 8.1 mph 16.1 mph N/A   Clear
10:55 PM 56.8 °F 42.6 °F 59% 30.08 in 10.0 mi NNW 11.5 mph - N/A   Clear
11:15 PM 56.5 °F 41.9 °F 58% 30.09 in 10.0 mi NNW 9.2 mph - N/A   Clear
11:35 PM 55.6 °F 41.0 °F 58% 30.09 in 10.0 mi NNW 10.4 mph - N/A   Clear
11:55 PM 54.9 °F 40.3 °F 58% 30.09 in 10.0 mi NNW 8.1 mph - N/A   Clear